This is the latest recevied weather packets stored in our database for station/object 9W2EXL-13. If no packets are shown the sender has not sent any weather packets the latest 10 day(s).
| Time | Temp. | Humidity | Pressure | Rain* | Wind** | Luminosity | Snow |
|---|---|---|---|---|---|---|---|
| 1788132078 | 84° F | 100% | 758.9 mmHg | - | - | - | - |
| 1788131178 | 84° F | 100% | 758.5 mmHg | - | - | - | - |
| 1788126678 | 85° F | 99% | 758.4 mmHg | - | - | - | - |
| 1788125778 | 85° F | 99% | 758.4 mmHg | - | - | - | - |
| 1788123978 | 85° F | 98% | 758 mmHg | - | - | - | - |
| 1788123077 | 85° F | 98% | 758.1 mmHg | - | - | - | - |
| 1788122177 | 85° F | 97% | 758 mmHg | - | - | - | - |
| 1788121277 | 85° F | 98% | 758 mmHg | - | - | - | - |
| 1788120377 | 86° F | 97% | 758.1 mmHg | - | - | - | - |
| 1788119477 | 86° F | 98% | 758.1 mmHg | - | - | - | - |
| 1788118577 | 86° F | 99% | 758.1 mmHg | - | - | - | - |
| 1788114978 | 87° F | 100% | 758.6 mmHg | - | - | - | - |
| 1788114077 | 87° F | 100% | 758.7 mmHg | - | - | - | - |
| 1788113178 | 87° F | 100% | 758.8 mmHg | - | - | - | - |
| 1788103278 | 88° F | 97% | 759.3 mmHg | - | - | - | - |
| 1788101475 | 89° F | 96% | 759.1 mmHg | - | - | - | - |
| 1788100575 | 89° F | 96% | 759.2 mmHg | - | - | - | - |
| 1788099675 | 89° F | 95% | 759.1 mmHg | - | - | - | - |
| 1788098775 | 89° F | 95% | 758.9 mmHg | - | - | - | - |
| 1788097875 | 90° F | 94% | 758.8 mmHg | - | - | - | - |
| 1788096975 | 90° F | 93% | 758.6 mmHg | - | - | - | - |
| 1788095175 | 91° F | 91% | 758.2 mmHg | - | - | - | - |
| 1788092474 | 92° F | 86% | 757.6 mmHg | - | - | - | - |
| 1788090674 | 93° F | 82% | 757.2 mmHg | - | - | - | - |
| 1788089774 | 93° F | 81% | 757 mmHg | - | - | - | - |
* Rain since midnight (hover to see other rain measurements)
** Current wind speed in m/s (hover to see current wind gust speed)